Theta_e
312 312 312 311 311 312 312 312 312 312 313 313 312 312 311 312 314 315 315 315 314 314 313 312 312 311 312 313 311 310 312 311 312 311 313 316 320 319 319 315 316 316 313 313 312 312 313
312 311 311 311 311 311 311 312 311 309 310 309 311 312 310 311 312 314 314 314 313 313 311 311 311 312 312 313 309 310 310 309 310 311 314 316 317 317 316 315 316 314 313 313 312 312 311
311 311 312 311 311 311 311 311 311 310 306 307 305 307 311 310 311 311 313 311 311 312 308 308 310 308 309 309 309 308 307 308 309 312 316 315 314 315 315 313 313 313 314 314 313 312 312
311 311 311 311 311 310 311 311 311 308 304 305 304 306 310 309 309 310 312 309 309 309 308 307 308 309 309 308 310 309 309 310 310 310 310 311 312 313 313 312 312 314 316 317 313 313 312
312 311 310 311 311 311 312 311 311 307 305 304 303 305 306 308 308 308 310 312 310 309 309 309 310 310 310 309 310 309 310 310 309 309 309 310 312 312 313 315 314 314 321 317 315 313 313
311 311 311 310 311 311 311 310 311 308 305 304 303 304 305 306 307 308 308 309 310 309 310 310 310 310 309 310 310 310 309 310 310 311 311 312 312 314 314 315 316 314 316 314 316 315 313
311 311 310 310 310 310 311 310 309 306 305 305 304 304 304 306 306 308 308 311 311 311 310 311 310 310 310 310 310 310 310 310 311 311 310 312 313 318 313 312 312 313 314 313 314 313 314
311 311 310 309 309 309 309 309 308 306 306 306 307 306 304 305 306 308 310 311 310 310 311 310 310 310 309 310 311 311 310 312 311 311 311 313 313 310 310 312 311 312 313 315 313 312 312
311 311 310 308 304 304 305 307 308 305 304 305 306 307 307 305 306 309 309 308 306 307 312 311 310 310 310 310 311 312 311 311 312 313 313 313 310 310 311 312 313 313 314 313 315 313 313
311 311 311 310 305 303 303 303 303 305 303 304 305 307 308 305 309 308 309 307 307 307 319 312 312 310 311 310 311 310 309 311 311 312 312 312 310 311 312 312 314 313 313 313 314 316 321
311 311 311 312 309 306 304 304 303 303 304 303 304 306 308 307 309 310 307 307 307 308 325 311 312 310 311 312 311 311 310 311 312 312 313 312 312 313 314 313 313 316 313 314 314 316 319
310 310 310 311 310 309 306 304 304 303 304 303 303 306 309 309 310 307 307 306 306 323 319 312 312 312 312 311 311 310 311 311 311 312 312 312 311 312 313 312 313 312 313 313 313 314 326
309 310 310 309 309 309 309 305 304 303 304 304 303 307 308 308 311 308 307 309 323 323 308 312 313 312 312 312 311 311 313 313 314 317 315 313 313 312 313 314 313 312 314 330 326 328 323
309 309 309 309 309 309 309 308 305 303 305 305 304 306 307 308 307 307 307 317 320 311 312 311 313 312 313 313 312 312 312 315 312 313 315 320 317 314 312 315 316 314 315 326 325 321 320
308 309 308 308 308 309 309 309 307 305 305 305 305 309 310 308 306 306 314 324 317 313 312 313 312 313 314 313 313 313 314 314 312 312 315 315 318 313 314 314 314 317 319 313 320 317 322
308 308 308 308 307 308 309 310 308 306 305 307 311 311 309 306 305 309 319 315 313 311 312 312 313 313 313 314 314 314 314 313 313 312 312 312 317 314 314 315 315 316 314 322 321 327 328
307 307 307 308 307 307 309 310 309 308 305 306 310 315 307 305 306 316 322 315 313 311 312 313 313 313 314 314 314 314 313 313 312 312 312 313 315 316 315 316 317 316 317 316 318 319 327
306 307 307 307 307 307 309 310 309 309 306 307 311 325 306 305 320 315 317 313 309 312 311 313 313 313 314 313 314 314 314 314 312 312 314 313 315 320 315 314 313 315 317 317 321 322 317
307 307 307 307 308 308 308 310 310 309 306 308 311 314 309 308 323 316 312 312 311 312 312 313 313 312 312 312 312 312 312 313 312 312 313 313 314 315 314 314 313 316 316 316 316 315 318
305 306 307 307 308 308 308 310 310 310 307 307 313 323 314 312 310 312 312 312 313 311 312 311 311 311 311 312 311 311 310 313 312 312 310 311 311 312 314 309 314 314 315 315 316 320 315
306 306 307 308 308 308 308 309 310 310 308 310 312 312 307 316 312 310 311 310 311 312 310 310 311 311 311 311 310 310 309 311 313 312 312 312 312 311 310 309 309 309 309 312 316 315 313
309 307 307 308 308 308 309 309 310 310 309 309 313 312 309 310 308 310 308 311 310 310 311 311 311 310 310 310 308 308 309 309 310 312 313 312 312 310 310 309 309 309 309 309 309 311 312
309 310 310 309 308 309 309 309 309 310 310 310 305 304 308 308 311 312 309 308 309 310 310 309 310 310 310 310 309 309 309 309 309 310 312 312 312 311 310 308 308 309 309 308 308 308 309
309 309 309 309 310 309 309 309 309 309 309 307 305 305 312 315 311 311 308 308 309 309 310 309 309 310 308 307 308 307 308 308 308 308 309 311 311 311 313 310 314 309 306 306 308 309 309
309 310 310 310 309 310 310 309 309 309 309 307 305 306 312 316 310 311 306 307 307 305 306 307 308 307 307 308 308 308 307 306 307 307 308 308 310 311 313 312 311 307 305 306 308 309 308
309 309 309 309 309 309 310 310 310 309 309 308 307 305 307 312 314 306 308 306 308 310 308 305 305 305 306 308 308 309 311 306 309 308 305 307 308 310 310 311 311 307 306 306 306 310 305
309 308 309 309 309 308 309 310 310 310 309 308 308 307 306 312 311 306 309 311 306 307 310 305 306 308 306 309 311 311 311 305 306 308 308 308 308 311 311 311 311 310 307 305 312 308 307
310 309 308 308 308 309 309 310 310 311 311 310 308 307 306 311 311 304 304 307 306 307 312 307 309 308 309 311 311 311 308 306 305 305 308 309 310 310 310 312 312 307 306 308 308 307 306
310 309 308 307 307 308 309 309 309 309 310 310 308 308 305 307 311 305 306 305 304 306 309 308 310 306 309 310 308 307 307 306 306 308 305 308 309 311 310 311 308 306 308 308 306 306 305
Wind_Speed
19 18 18 18 18 18 18 18 19 21 22 23 25 25 24 25 28 29 24 27 27 25 27 26 23 17 9 9 4 9 7 2 4 9 16 18 20 12 15 9 12 14 9 9 9 8 7
18 18 18 18 18 18 18 18 18 19 21 24 26 25 20 24 24 28 24 26 23 21 19 18 19 17 10 10 10 9 5 3 7 7 19 22 12 9 10 6 3 10 14 11 8 8 6
19 19 18 19 18 18 18 18 18 19 22 23 25 24 17 21 23 22 22 24 26 25 32 26 24 31 27 3 9 8 2 4 4 6 8 10 12 6 12 14 14 16 14 11 8 5 4
19 19 19 19 20 19 19 19 19 19 20 21 22 23 16 16 17 21 20 23 20 23 25 28 25 18 12 3 6 11 9 11 9 9 12 6 11 10 6 16 7 7 8 7 5 1 3
20 20 20 19 19 20 20 19 18 17 18 19 19 19 18 11 20 19 15 14 16 18 9 9 11 10 6 5 5 10 8 10 11 9 9 4 4 7 9 12 8 5 8 8 6 2 0
20 21 21 20 20 19 20 20 19 17 16 18 19 17 16 13 5 3 7 19 11 6 8 6 13 5 7 5 6 6 8 7 5 7 7 3 3 7 10 10 7 10 9 5 7 3 3
20 21 22 21 21 20 20 20 18 17 16 16 17 16 14 11 11 5 5 1 5 6 19 19 12 10 6 8 4 13 7 5 4 6 6 2 10 10 7 5 5 11 8 9 5 3 3
21 21 22 22 23 22 21 20 18 16 15 15 15 15 13 12 10 12 9 5 4 3 15 15 14 11 11 7 9 17 14 4 5 7 6 12 10 5 2 3 7 7 9 6 3 1 3
22 21 22 23 25 25 24 23 20 16 14 14 14 14 12 7 4 7 11 6 3 6 6 13 7 8 4 11 8 12 10 4 11 11 8 9 6 2 6 8 10 9 2 3 3 2 5
22 23 23 23 26 27 28 26 22 19 13 12 13 14 12 2 3 2 3 4 4 3 4 12 10 8 9 4 5 10 7 4 5 7 8 10 3 5 7 8 6 6 4 3 3 3 2
23 22 23 24 26 27 29 30 25 19 16 11 10 13 11 7 2 2 1 3 3 3 4 10 6 5 7 6 2 11 10 10 11 5 2 3 6 6 8 5 7 5 2 3 2 1 4
19 23 23 24 26 28 30 31 29 21 17 11 9 10 9 5 4 1 1 1 1 1 5 4 5 7 6 12 7 3 5 7 3 15 15 9 3 6 5 8 8 6 2 1 1 1 2
18 18 22 25 27 29 30 32 33 24 18 8 5 7 10 5 2 2 1 3 3 5 1 2 4 3 10 7 6 5 9 8 4 4 4 5 7 4 3 3 2 1 2 0 2 1 2
16 18 20 23 26 28 30 32 35 29 19 4 3 2 9 6 2 1 2 0 9 1 2 1 1 6 4 4 5 4 3 5 7 3 4 2 3 3 3 5 4 4 4 1 3 2 4
15 17 19 23 26 28 30 32 34 31 16 5 1 2 4 7 3 1 4 6 4 2 3 2 2 1 3 4 1 2 5 3 3 4 2 2 3 3 4 2 4 2 1 1 1 3 2
12 15 18 22 25 27 30 32 34 31 17 5 1 1 4 6 2 4 4 5 3 1 2 2 2 2 2 3 1 2 1 2 2 3 5 1 3 1 3 2 2 3 3 2 2 2 4
11 14 17 21 24 26 29 31 33 32 21 5 1 2 5 5 2 2 4 5 4 2 3 3 2 2 3 2 2 2 3 3 1 1 4 1 3 3 2 7 5 3 3 3 2 2 3
8 12 16 19 23 26 28 30 32 32 22 6 1 2 10 4 3 3 4 3 1 3 0 1 2 2 2 1 2 2 3 4 2 1 1 3 3 3 2 3 4 6 6 8 3 5 4
8 10 13 17 21 25 27 29 31 31 24 3 2 2 7 5 4 4 2 3 2 1 1 1 0 2 1 0 1 1 2 2 3 1 3 2 1 2 3 4 4 5 7 8 7 4 10
9 9 10 13 18 22 26 27 28 28 21 4 1 2 4 4 3 4 2 2 1 1 0 2 1 1 2 2 1 1 2 2 1 0 3 0 2 7 4 3 1 5 8 11 12 5 7
6 7 8 11 15 19 23 26 27 26 17 4 4 2 1 3 6 5 2 1 1 1 1 1 2 6 2 2 2 3 3 4 4 4 2 3 5 3 10 12 11 14 14 14 18 20 11
6 6 8 10 12 15 19 23 26 25 14 7 3 3 3 2 0 3 1 2 2 0 2 1 3 4 4 3 5 4 3 4 4 7 5 4 2 4 6 9 9 15 18 19 21 21 21
8 9 8 9 10 11 14 18 22 23 13 5 3 1 3 1 1 2 2 2 2 2 2 1 2 3 3 4 6 7 7 4 4 4 8 4 3 1 4 2 11 14 14 20 14 14 12
11 8 8 9 10 10 10 12 16 18 17 5 3 2 2 1 2 2 1 1 2 2 3 0 3 3 3 1 4 4 6 6 6 9 7 5 6 2 4 6 5 1 2 4 15 9 11
15 14 12 11 11 10 10 8 10 11 12 8 5 4 2 2 1 2 2 3 3 3 3 3 2 3 3 3 3 4 3 3 3 3 8 9 8 4 3 5 11 2 4 4 6 2 6
18 17 16 13 15 14 11 10 8 7 7 7 5 4 2 4 1 1 1 1 2 2 2 1 1 2 1 2 2 3 3 2 3 2 2 8 9 7 3 4 4 4 5 4 2 4 5
21 18 17 16 18 17 17 15 12 10 7 3 3 2 1 2 1 3 2 2 1 1 2 2 3 2 1 3 4 4 3 1 3 4 5 4 6 12 10 5 8 1 7 4 3 4 4
24 21 19 20 20 20 19 18 16 13 11 6 4 3 2 2 4 4 3 4 2 2 4 4 2 3 3 3 3 3 3 2 2 2 5 8 8 5 6 5 8 5 6 4 4 5 11
25 23 22 21 20 21 21 20 18 17 14 11 5 6 7 4 3 4 8 12 9 7 4 3 4 2 2 3 2 3 3 2 4 3 5 5 6 2 8 4 2 2 11 3 5 10 8
Wind_Direction
17 17 17 12 7 5 4 3 7 4 6 4 4 8 24 35 36 40 70 72 69 73 87 98 109 129 90 59 47 356 33 358 140 172 192 167 169 168 162 129 110 111 113 92 95 101 82
16 15 16 11 8 6 0 2 3 7 6 6 7 8 22 48 52 45 73 67 57 67 73 101 93 88 97 51 325 322 302 109 144 197 183 174 165 132 116 95 53 121 112 104 84 85 71
17 14 14 15 10 8 4 359 1 1 1 9 16 21 42 56 65 65 75 63 65 74 75 80 84 83 64 55 312 356 91 139 138 196 153 140 142 162 138 102 112 125 109 107 67 59 73
16 16 11 15 12 11 6 1 4 2 3 9 19 31 49 59 65 74 87 83 83 75 63 68 74 70 87 8 50 28 107 97 94 101 112 113 130 89 87 120 133 121 149 141 72 77 93
14 14 13 11 13 8 5 2 3 7 7 4 18 25 32 72 76 73 80 99 92 84 88 69 19 37 59 18 33 29 64 107 100 96 83 102 86 108 143 143 128 201 164 162 139 76 160
13 13 13 11 11 10 5 2 1 8 9 10 11 23 24 36 32 69 80 80 92 82 125 12 4 102 31 13 5 359 54 72 91 141 115 123 146 133 152 162 169 162 149 169 147 111 211
15 11 11 12 11 11 7 1 3 10 12 13 15 10 10 21 39 75 140 78 98 58 54 58 53 74 46 336 60 37 11 107 112 203 127 90 148 126 88 11 342 152 160 160 103 67 305
15 13 10 10 12 10 9 5 1 5 9 12 14 12 3 0 19 58 80 78 26 56 76 48 57 67 49 342 60 17 21 89 133 118 158 101 90 72 85 93 115 142 133 115 100 104 288
15 14 12 11 15 13 11 7 0 356 358 358 2 7 9 354 18 47 64 56 360 337 76 45 34 30 357 14 35 8 10 48 58 80 91 83 75 83 110 107 105 60 75 106 21 248 237
15 16 12 12 16 15 12 10 2 354 348 348 350 356 6 48 113 24 71 348 335 326 84 7 25 29 354 329 59 24 12 1 56 73 66 65 66 95 101 78 336 123 53 75 22 330 282
16 14 13 11 16 14 15 12 5 356 347 341 346 353 2 45 93 80 216 347 326 264 70 339 12 316 16 64 335 30 19 52 67 25 230 77 77 75 70 26 347 92 76 57 6 8 13
12 12 13 12 12 14 12 12 9 360 350 345 351 2 3 6 51 41 3 41 260 52 58 29 22 8 87 51 51 66 65 66 11 70 71 90 93 34 59 53 59 124 142 188 250 320 268
7 5 8 14 14 14 13 10 8 1 349 333 348 10 24 21 8 331 55 233 38 53 227 47 43 30 71 63 64 54 59 52 59 62 28 88 49 78 10 99 102 278 255 221 207 224 294
5 2 2 5 10 10 11 11 8 2 357 355 333 19 11 39 346 330 286 225 61 227 54 41 344 79 80 0 65 69 99 91 62 49 137 127 141 14 4 28 15 43 344 9 258 305 4
359 359 359 2 3 6 9 9 9 4 2 13 78 60 25 342 8 308 253 54 137 128 96 167 204 158 99 98 33 83 54 63 41 9 33 152 101 114 53 34 323 92 182 17 294 145 262
359 357 356 1 1 3 7 8 6 6 7 3 335 256 27 352 8 268 60 98 99 82 137 234 24 328 99 75 197 143 147 52 54 2 344 106 118 184 127 214 90 318 130 170 176 300 275
350 350 355 358 360 1 5 7 5 7 8 33 307 294 354 5 338 44 66 67 105 120 337 333 71 90 46 46 25 73 68 115 37 87 335 271 302 124 208 206 179 163 200 212 319 253 283
341 347 353 356 358 3 4 6 5 5 9 36 308 17 348 5 31 38 57 50 37 130 206 352 313 35 26 55 51 53 64 48 73 106 80 58 326 181 199 80 327 287 252 199 228 187 235
315 339 347 355 357 3 4 6 5 3 9 354 31 335 349 345 46 56 82 89 33 132 201 297 325 339 356 39 321 78 109 81 134 136 10 44 215 204 197 188 189 241 221 235 265 302 246
310 324 341 351 356 360 2 5 6 4 4 47 358 16 32 54 28 51 83 86 97 87 69 324 349 278 219 209 157 161 177 98 150 88 35 320 284 270 297 13 22 202 211 212 220 240 255
301 314 335 346 353 357 1 4 8 5 5 52 9 87 100 12 35 31 346 4 129 225 252 233 230 248 257 257 221 217 178 160 177 150 189 281 267 250 266 272 264 263 262 220 220 222 241
294 305 312 326 342 351 359 5 9 9 10 55 12 330 166 97 66 333 8 56 316 229 243 167 246 360 256 278 333 336 226 220 217 180 199 183 272 320 285 266 276 267 255 250 251 246 254
286 301 310 321 327 339 355 6 13 16 29 59 36 41 289 140 344 311 55 23 16 312 133 298 297 281 253 308 333 296 299 304 313 222 205 206 232 277 267 13 305 275 262 226 231 239 254
259 275 291 319 322 330 340 358 12 19 30 42 24 307 296 22 307 353 174 250 268 265 291 82 242 258 65 265 264 253 260 270 242 235 262 228 226 250 275 294 239 15 19 269 209 224 233
262 264 270 280 298 308 319 330 353 11 22 41 25 335 328 288 306 252 233 236 259 242 241 254 231 9 341 282 271 261 203 229 227 290 232 244 228 260 258 252 287 221 173 169 178 172 200
255 261 266 273 280 286 286 294 306 327 360 25 32 37 323 310 150 111 253 213 291 265 223 210 113 357 222 238 234 254 255 349 187 192 343 228 258 235 198 261 257 72 141 159 150 205 148
252 259 263 266 269 277 274 272 275 282 293 323 305 11 308 284 168 204 233 303 92 265 265 164 166 179 266 234 227 234 238 63 251 220 160 168 216 228 237 266 287 139 144 149 237 90 19
251 250 256 263 262 262 264 266 260 260 266 266 267 237 225 270 273 217 229 205 171 230 281 111 207 182 185 231 264 248 245 193 259 182 178 183 183 198 209 237 267 116 141 232 27 355 354
243 245 251 259 260 257 256 260 260 254 248 247 235 246 221 253 314 224 243 255 262 292 279 196 321 202 177 204 233 300 254 234 246 248 200 226 220 222 213 233 83 268 288 298 326 323 331